Regional Weather Roundup
Issued by NWS Sterling, VA

Home | Current Version | Previous Version | Text Only | Print | Product List | Glossary On
Versions: 1 2 3 4 5 6 7 8 9 10 11 12 13 14 15 16 17 18 19 20 21 22 23 24 25 26 27 28 29 30 31 32 33 34 35 36 37 38 39 40 41 42 43 44 45 46 47 48 49
000
ASUS41 KLWX 270410
RWRLWX

REGIONAL WEATHER ROUNDUP
NATIONAL WEATHER SERVICE BALTIMORE MD/WASHINGTON DC
1100 PM EST THU FEB 26 2015

Note: "FAIR" indicates few or no clouds below 12,000 feet
with no significant weather and/or obstructions to visibility.
 TC=TEMPERATURE CELSIUS

 * =Non NWS site. Station does not report precipitation (e.g. rain,
    snow, etc.), thunder, or fog.

DCZ001-MDZ009-015-VAZ040>042-051-053>054-270500-
WASHINGTON METRO

CITY           SKY/WX    TMP DP  RH WIND       PRES   REMARKS
WASHINGTON NAT CLOUDY    33  22  63 SE5       30.15R
DULLES         CLOUDY    30  23  75 CALM      30.12R
ANDREWS AFB    CLOUDY    28  24  86 CALM      30.13R
FT BELVOIR     CLOUDY    31  25  79 CALM      30.15R
QUANTICO       CLOUDY    32  25  75 CALM      30.16R
COLLEGE PARK*  CLOUDY    32  23  69 CALM      30.14R
LEESBURG*      CLOUDY    32  27  80 CALM      30.13R
MANASSAS*      CLOUDY    28  28 100 CALM      30.14R
GAITHERSBURG*  CLOUDY    28  21  74 CALM      30.15R

$$

MDZ006>007-011-014-270500-
BALTIMORE METRO

CITY           SKY/WX    TMP DP  RH WIND       PRES   REMARKS
BWI AIRPORT    CLOUDY    28  22  78 CALM      30.13R
MD SCIENCE CTR   N/A     30  21  69 MISG      30.15R
MARTIN STATE   MOCLDY    28  25  86 CALM      30.16R
ANNAPOLIS      CLOUDY    28  22  78 CALM      30.14R
FORT MEADE*    CLOUDY    28  23  80 CALM      30.16R

$$

MDZ012-015-019>023-270500-
MARYLAND EASTERN SHORE

CITY           SKY/WX    TMP DP  RH WIND       PRES   REMARKS
OCEAN CITY     PTCLDY    18  16  92 N3        30.13S
SALISBURY      FOG       20  16  84 CALM      30.13R VSB 1/4
BAY BRIDGE AP*   N/A     28  21  74 CALM      30.14S
CAMBRIDGE*     PTCLDY    23  21  93 CALM      30.14R
EASTON*        MOCLDY    24  22  90 SE3       30.17F

$$

MDZ017>025-270500-
SOUTHERN MARYLAND

CITY           SKY/WX    TMP DP  RH WIND       PRES   REMARKS
PATUXENT RIVER PTCLDY    20  17  88 CALM      30.13S
ST INIGOES     CLEAR     22  17  81 E5        30.12F HAZE
LEONARDTOWN*   PTCLDY    23  21  93 CALM      30.14S

$$

MDZ003>005-270500-
NORTH CENTRAL MARYLAND

CITY           SKY/WX    TMP DP  RH WIND       PRES   REMARKS
FREDERICK*     CLOUDY    30  19  64 NE3       30.15S
HAGERSTOWN APT MOCLDY    27  21  78 E3        30.10R
WESTMINSTER*   CLOUDY    27  19  74 NE3       30.09S

$$

MDZ501>502-270500-
WESTERN MARYLAND

CITY           SKY/WX    TMP DP  RH WIND       PRES   REMARKS
OAKLAND*       CLOUDY    14 N/A N/A NW3       29.99R FOG
CUMBERLAND*    CLOUDY    30  18  59 NW5       30.15R

$$

VAZ025>031-270500-
SHENANDOAH VALLEY

CITY           SKY/WX    TMP DP  RH WIND       PRES   REMARKS
WINCHESTER*    PTCLDY    27  21  80 CALM      30.10R
FRONT ROYAL*   CLOUDY    28  25  86 W3        30.09R
LURAY*         CLOUDY    32  28  86 CALM      30.09R
NEW MARKET*    CLOUDY    30  26  88 CALM      30.08R
STAUNTON*      CLOUDY    32  26  78 CALM      30.09R
WAYNESBORO*    CLOUDY    31  26  83 CALM      30.06R

$$

WVZ021-048>050-054>055-270500-
EASTERN WEST VIRGINIA PANHANDLE

CITY           SKY/WX    TMP DP  RH WIND       PRES   REMARKS
MARTINSBURG    PTCLDY    28  22  78 CALM      30.11R
PETERSBURG*    NOT AVBL

$$

VAZ036>039-050-270500-
CENTRAL FOOTHILLS

CITY           SKY/WX    TMP DP  RH WIND       PRES   REMARKS
CHARLOTTESVILL CLOUDY    33  26  75 S5        30.10R
CULPEPER*      MOCLDY    30  27  86 CALM      30.13R
ORANGE*        CLOUDY    32  28  86 CALM      30.13R
GORDONSVILLE*  CLOUDY    28  26  90 CALM      30.11R
WARRENTON*     CLOUDY    30  30 100 CALM      30.12R

$$

VAZ055>057-270500-
NORTH AND CENTRAL PIEDMONT

CITY           SKY/WX    TMP DP  RH WIND       PRES   REMARKS
FREDERICKSBRG* CLOUDY    30  28  91 CALM      30.13R
STAFFORD*      CLOUDY    29  26  88 CALM      30.17R

$$

NCZ024-NYZ072-PAZ021-071-VAZ022-071-270500-
OTHER REGIONAL OBSERVATIONS

CITY           SKY/WX    TMP DP  RH WIND       PRES   REMARKS
NEW YORK CITY  PTCLDY    22   9  57 VRB3      30.15S
PHILADELPHIA   MOCLDY    27  15  61 NW3       30.15R
PITTSBURGH     LGT SNOW  11   6  81 NW12      30.20R WCI  -3
ROANOKE        MOCLDY    35  22  58 NW9       30.11R WCI  28
RICHMOND       FOG       26  23  88 CALM      30.13R VSB 1
RALEIGH        MOCLDY    28  27  93 CALM      30.16R FOG

$$

ANZ530>537-270500-
MARINE OBSERVATIONS

STATION/POSITION TIME  TEMP    WIND        PRES
                       AIR SEA DIR/SP/G
                 (UTC) (F)     (DEG/KT/KT) (MB)
THOMAS PT LIGHT  0400   30 31   CALM  /  1 1021.8R
BALT KEY BRIDGE  0300   29      90/  6/  6 1019.9S
COVE POINT       0300   28     360/  2/  2 1020.1R
LEWISETTA        0300   26 32     CALM     1020.1R
SOLOMONS ISLAND  0300      32                N/A

$$



USA.gov is the U.S. government's official web portal to all federal, state and local government web resources and services.